Location: *
(45.9500°N, 9.0833°E)
Time: 22:57:27
(UTC+00:00)

Tiros 1 despin weight - Pass Details

Date: 28 June 2021
Orbit: 593 x 642 km, 48.2° (Epoch: 02 August)

Event Time Altitude Azimuth Distance (km) Brightness Sun altitude
Rises 04:27:24 0° 271° (W) 2,840 ? 6.9°
Reaches altitude 10° 04:29:43 10° 275° (W) 1,933 ? 7.2°
Maximum altitude 04:34:07 65° 358° (N) 657 ? 7.9°
Drops below altitude 10° 04:38:30 10° 80° (E) 1,924 ? 8.6°
Sets 04:40:48 0° 84° (E) 2,826 ? 9.0°
